Regional Weather Roundup
Issued by NWS

Home | Current Version | Previous Version | Graphics & Text | Print | Product List | Glossary On
Versions: 1 2 3 4 5 6 7 8 9 10 11 12 13 14 15 16 17 18 19 20 21 22 23 24 25 26 27 28 29 30 31 32 33 34 35 36 37 38 39 40 41 42 43 44 45 46 47 48 49 50
000
ASUS45 KTFX 281310
RWRMT
MONTANA REGIONAL WEATHER ROUNDUP
NATIONAL WEATHER SERVICE GREAT FALLS MT
700 AM MDT WED JUN 28 2017

NOTE: "FAIR" INDICATES FEW OR NO CLOUDS BELOW 12000 FEET WITH NO
SIGNIFICANT WEATHER AND/OR OBSTRUCTIONS TO VISIBILITY.

MTZ001>007-043-281400-
WEST OF THE DIVIDE

CITY           SKY/WX    TMP DP  RH WIND       PRES   REMARKS
KALISPELL      PTSUNNY   49  46  90 CALM      29.79R
MISSOULA       MOSUNNY   50  43  77 CALM      29.85R
BUTTE          CLOUDY    46  42  86 CALM      29.93S
MULLAN PASS    CLEAR     47  34  60 NW3       29.94S
ANACONDA         N/A     52  43  71 CALM      29.90S
DEER LODGE       N/A     52  45  76 W3        29.91S
EUREKA           N/A     46  39  76 CALM      29.79R
HAMILTON         N/A     57  46  67 S9        29.86S
$$

MTZ008-052>055-281400-
SOUTHWEST MONTANA

CITY           SKY/WX    TMP DP  RH WIND       PRES   REMARKS
BOZEMAN        CLOUDY    49  46  90 SE5       29.89R
DILLON         CLOUDY    51  43  74 S8        29.91S
W YELLOWSTONE  FOG       45  45 100 CALM      30.02R VSB<1/4
ENNIS          SUNNY     48  43  81 SE6       29.97R
THREE FORKS      N/A     52  51  96 CALM      29.89R
$$

MTZ009-010-012-014-046-048-049-054-281400-
EAST SLOPES AND CENTRAL MONTANA

CITY           SKY/WX    TMP DP  RH WIND       PRES   REMARKS
CUT BANK       CLOUDY    50  43  77 W7        29.76S
GREAT FALLS    CLOUDY    55  40  56 S9        29.78S
MALMSTROM AFB  MOSUNNY   56  42  61 SW9       29.77S
HELENA         CLOUDY    56  47  71 N6        29.84S
CHOTEAU          N/A     61  39  44 CALM      29.79S
$$

MTZ011-013-016-021-045-047-050-051-281400-
NORTH CENTRAL MONTANA

CITY           SKY/WX    TMP DP  RH WIND       PRES   REMARKS
HAVRE          MOSUNNY   56  46  69 CALM      29.70S
LEWISTOWN      MOSUNNY   57  44  62 W8        29.80R
N BAR RANCH      N/A     57  43  58 W5        29.82F
CHINOOK          N/A     57  46  67 E10       29.69F
FORT BENTON      N/A     57  46  67 MISG      29.76R
$$

MTZ017>020-022>027-061-062-281400-
NORTHEAST MONTANA

CITY           SKY/WX    TMP DP  RH WIND       PRES   REMARKS
GLASGOW        SUNNY     57  38  48 SE9       29.74S
JORDAN           N/A     57  55  93 E6        29.75S
SIDNEY         SUNNY     58  43  57 N5        29.78R
WOLF POINT     SUNNY     59  42  53 CALM      29.77R
MALTA          SUNNY     55  46  71 NE6       29.71F
PLENTYWOOD       N/A     52  43  71 CALM      29.76R
POPLAR           N/A     55  45  67 SE5       29.77S
$$

MTZ028>42-056>058-281400-
SOUTHCENTRAL AND SOUTHEAST MONTANA

CITY           SKY/WX    TMP DP  RH WIND       PRES   REMARKS
BAKER          MOSUNNY   58  52  80 CALM      29.80S
BILLINGS       MOSUNNY   59  45  59 SW16      29.80R
LIVINGSTON     MOSUNNY   59  45  59 W12G21    29.86R
MILES CITY     SUNNY    N/A N/A N/A MISG      29.78R
BIG TIMBER     SUNNY     59  46  63 W10       29.87S
LAUREL           N/A     57  45  64 S1        29.82R
ROUNDUP          N/A     57  45  64 S10       29.72S
$$

REGIONAL REPORTS...DAKOTAS

CITY           SKY/WX    TMP DP  RH WIND       PRES   REMARKS
WILLISTON      SUNNY     58  43  57 CALM      29.75R
MINOT          PTSUNNY   62  49  62 NW18      29.64R
DICKINSON      SUNNY     58  49  72 NW13      29.72S
BEACH            N/A     57  54  88 NW6       29.81S
CROSBY           N/A     55  45  67 NW14      29.72S
TIOGA            N/A     55  46  71 VRB7      29.73S
WATFORD CITY     N/A     55  46  71 NW7       29.73S
BISMARCK       CLOUDY    64  59  83 NW13G23   29.62R
GRAND FORKS    TSTM      61  61 100 NE13      29.51F FOG
FARGO          CLOUDY    69  62  78 S18G25    29.45F
BUFFALO SD       N/A     61  54  77 NW13      29.72F
RAPID CITY     SUNNY     65  51  60 NW16      29.79S
$$

REGIONAL REPORTS...WYOMING/IDAHO/WASHINGTON

CITY           SKY/WX    TMP DP  RH WIND       PRES   REMARKS
GILLETTE       SUNNY     58  53  84 CALM      29.86S
SHERIDAN       SUNNY     57  48  72 SE3       29.83R
BUFFALO WY     CLOUDY    60  44  55 CALM      29.89R
CODY           CLOUDY    58  42  55 SE7       29.90S
YELLOWSTONE LA   N/A     38  38 100 W3        30.09R
IDAHO FALLS    CLOUDY    52  51  97 CALM      29.94S
SALMON         CLOUDY    48  46  93 SW3       29.91S
BOISE          PTCLDY    63  46  54 CALM      29.85R
SPOKANE        PTCLDY    53  46  77 S9        29.83R
$$

REGIONAL REPORTS...ALBERTA

CITY           SKY/WX    TMP DP  RH WIND       PRES   REMARKS
EDMONTON       CLOUDY    54  50  87 W15G21    29.59S
CALGARY        MOSUNNY   54  45  71 S6        29.71F
LETHBRIDGE     MOSUNNY   52  45  76 W5        29.74F
MEDICINE HAT   MOSUNNY   55  45  67 E7        29.69F
WATERTON GATE    N/A     46  41  81 NE2         N/A
MILK RIVER       N/A     48  43  81 W9          N/A
$$

REGIONAL REPORTS...SASKATCHEWAN

CITY           SKY/WX    TMP DP  RH WIND       PRES   REMARKS
SWIFT CURRENT  SUNNY     54  46  76 SW6       29.73S HAZE
REGINA         MOSUNNY   54  46  76 W9        29.72R
SASKATOON      MOSUNNY   54  48  82 W9        29.69S
VAL MARIE        N/A     55  39  54 NE6         N/A
ROCKGLEN         N/A     55  41  58 N3          N/A
$$



USA.gov is the U.S. government's official web portal to all federal, state and local government web resources and services.